Location: Treviso
(45.6669°N, 12.2430°E)
Time: 05:47:42
(UTC+02:00)

ISS - Pass Details

Date: 16 September 2018
Orbit: 403 x 409 km, 51.6° (Epoch: 24 September)

Event Time Altitude Azimuth Distance (km) Brightness Sun altitude
Exits shadow 05:43:13 20° 274° (W) 992 -2.4 -12.3°
Maximum altitude 05:44:58 37° 218° (SW) 646 -3.2 -12.0°
Drops below altitude 10° 05:48:00 10° 149° (SSE) 1,452 -0.8 -11.5°
Sets 05:50:09 0° 140° (SE) 2,307 0.3 -11.2°
